Year,Month,Day,Hour,Minute,Value (Times are PST for temperature in C)
2011,05,23,00,00,6.10
2011,05,23,00,01,6.10
2011,05,23,00,02,6.10
2011,05,23,00,03,6.10
2011,05,23,00,04,6.10
2011,05,23,00,05,6.10
2011,05,23,00,06,6.10
2011,05,23,00,07,6.10
2011,05,23,00,08,6.10
2011,05,23,00,09,6.10
2011,05,23,00,10,6.10
2011,05,23,00,11,6.10
2011,05,23,00,12,6.20
2011,05,23,00,13,6.20
2011,05,23,00,14,6.20
2011,05,23,00,15,6.20
2011,05,23,00,16,6.20
2011,05,23,00,17,6.20
2011,05,23,00,18,6.20
2011,05,23,00,19,6.20
2011,05,23,00,20,6.10
2011,05,23,00,21,6.10
2011,05,23,00,22,6.10
2011,05,23,00,23,6.10
2011,05,23,00,24,6.10
2011,05,23,00,25,6.10
2011,05,23,00,26,6.10
2011,05,23,00,27,6.10
2011,05,23,00,28,6.10
2011,05,23,00,29,6.10
2011,05,23,00,30,6.10
2011,05,23,00,31,6.10
2011,05,23,00,32,6.00
2011,05,23,00,33,6.00
2011,05,23,00,34,6.00
2011,05,23,00,35,6.00
2011,05,23,00,36,6.00
2011,05,23,00,37,6.00
2011,05,23,00,38,6.00
2011,05,23,00,39,6.00
2011,05,23,00,40,6.00
2011,05,23,00,41,6.00
2011,05,23,00,42,6.00
2011,05,23,00,43,6.00
2011,05,23,00,44,6.00
2011,05,23,00,45,5.90
2011,05,23,00,46,5.90
2011,05,23,00,47,5.90
2011,05,23,00,48,5.90
2011,05,23,00,49,5.90
2011,05,23,00,50,5.90
2011,05,23,00,51,5.90
2011,05,23,00,52,5.90
2011,05,23,00,53,5.90
2011,05,23,00,54,5.90
2011,05,23,00,55,5.90
2011,05,23,00,56,5.90
2011,05,23,00,57,5.90
2011,05,23,00,58,5.90
2011,05,23,00,59,5.90
2011,05,23,01,00,5.90
2011,05,23,01,01,5.90
2011,05,23,01,02,5.90
2011,05,23,01,03,5.90
2011,05,23,01,04,5.90
2011,05,23,01,05,5.90
2011,05,23,01,06,5.90
2011,05,23,01,07,5.90
2011,05,23,01,08,5.90
2011,05,23,01,09,5.90
2011,05,23,01,10,5.90
2011,05,23,01,11,5.90
2011,05,23,01,12,5.90
2011,05,23,01,13,5.90
2011,05,23,01,14,5.90
2011,05,23,01,15,5.90
2011,05,23,01,16,5.90
2011,05,23,01,17,5.90
2011,05,23,01,18,5.90
2011,05,23,01,19,5.90
2011,05,23,01,20,5.90
2011,05,23,01,21,5.90
2011,05,23,01,22,5.90
2011,05,23,01,23,5.90
2011,05,23,01,24,5.90
2011,05,23,01,25,5.90
2011,05,23,01,26,5.90
2011,05,23,01,27,5.90
2011,05,23,01,28,5.90
2011,05,23,01,29,5.90
2011,05,23,01,30,5.90
2011,05,23,01,31,5.90
2011,05,23,01,32,5.90
2011,05,23,01,33,5.90
2011,05,23,01,34,5.90
2011,05,23,01,35,5.90
2011,05,23,01,36,5.80
2011,05,23,01,37,5.80
2011,05,23,01,38,5.80
2011,05,23,01,39,5.80
2011,05,23,01,40,5.80
2011,05,23,01,41,5.80
2011,05,23,01,42,5.80
2011,05,23,01,43,5.70
2011,05,23,01,44,5.70
2011,05,23,01,45,5.70
2011,05,23,01,46,5.70
2011,05,23,01,47,5.70
2011,05,23,01,48,5.70
2011,05,23,01,49,5.70
2011,05,23,01,50,5.70
2011,05,23,01,51,5.70
2011,05,23,01,52,5.70
2011,05,23,01,53,5.70
2011,05,23,01,54,5.70
2011,05,23,01,55,5.60
2011,05,23,01,56,5.60
2011,05,23,01,57,5.60
2011,05,23,01,58,5.60
2011,05,23,01,59,5.60
2011,05,23,02,00,5.60
2011,05,23,02,01,5.60
2011,05,23,02,02,5.50
2011,05,23,02,03,5.50
2011,05,23,02,04,5.50
2011,05,23,02,05,5.50
2011,05,23,02,06,5.50
2011,05,23,02,07,5.50
2011,05,23,02,08,5.50
2011,05,23,02,09,5.50
2011,05,23,02,10,5.50
2011,05,23,02,11,5.50
2011,05,23,02,12,5.50
2011,05,23,02,13,5.50
2011,05,23,02,14,5.50
2011,05,23,02,15,5.50
2011,05,23,02,16,5.50
2011,05,23,02,17,5.50
2011,05,23,02,18,5.40
2011,05,23,02,19,5.40
2011,05,23,02,20,5.40
2011,05,23,02,21,5.40
2011,05,23,02,22,5.40
2011,05,23,02,23,5.40
2011,05,23,02,24,5.40
2011,05,23,02,25,5.40
2011,05,23,02,26,5.40
2011,05,23,02,27,5.40
2011,05,23,02,28,5.30
2011,05,23,02,29,5.30
2011,05,23,02,30,5.30
2011,05,23,02,31,5.30
2011,05,23,02,32,5.30
2011,05,23,02,33,5.30
2011,05,23,02,34,5.30
2011,05,23,02,35,5.30
2011,05,23,02,36,5.30
2011,05,23,02,37,5.30
2011,05,23,02,38,5.30
2011,05,23,02,39,5.30
2011,05,23,02,40,5.30
2011,05,23,02,41,5.30
2011,05,23,02,42,5.30
2011,05,23,02,43,5.30
2011,05,23,02,44,5.30
2011,05,23,02,45,5.30
2011,05,23,02,46,5.30
2011,05,23,02,47,5.30
2011,05,23,02,48,5.30
2011,05,23,02,49,5.30
2011,05,23,02,50,5.30
2011,05,23,02,51,5.30
2011,05,23,02,52,5.30
2011,05,23,02,53,5.30
2011,05,23,02,54,5.30
2011,05,23,02,55,5.30
2011,05,23,02,56,5.30
2011,05,23,02,57,5.30
2011,05,23,02,58,5.30
2011,05,23,02,59,5.30
2011,05,23,03,00,5.20
2011,05,23,03,01,5.20
2011,05,23,03,02,5.20
2011,05,23,03,03,5.20
2011,05,23,03,04,5.20
2011,05,23,03,05,5.20
2011,05,23,03,06,5.20
2011,05,23,03,07,5.10
2011,05,23,03,08,5.10
2011,05,23,03,09,5.10
2011,05,23,03,10,5.10
2011,05,23,03,11,5.10
2011,05,23,03,12,5.10
2011,05,23,03,13,5.10
2011,05,23,03,14,5.10
2011,05,23,03,15,5.10
2011,05,23,03,16,5.10
2011,05,23,03,17,5.10
2011,05,23,03,18,5.10
2011,05,23,03,19,5.10
2011,05,23,03,20,5.10
2011,05,23,03,21,5.00
2011,05,23,03,22,4.90
2011,05,23,03,23,4.90
2011,05,23,03,24,4.90
2011,05,23,03,25,4.90
2011,05,23,03,26,4.90
2011,05,23,03,27,4.90
2011,05,23,03,28,4.90
2011,05,23,03,29,4.90
2011,05,23,03,30,4.90
2011,05,23,03,31,4.90
2011,05,23,03,32,4.90
2011,05,23,03,33,4.90
2011,05,23,03,34,4.80
2011,05,23,03,35,4.80
2011,05,23,03,36,4.80
2011,05,23,03,37,4.80
2011,05,23,03,38,4.80
2011,05,23,03,39,4.80
2011,05,23,03,40,4.80
2011,05,23,03,41,4.70
2011,05,23,03,42,4.70
2011,05,23,03,43,4.70
2011,05,23,03,44,4.70
2011,05,23,03,45,4.70
2011,05,23,03,46,4.70
2011,05,23,03,47,4.70
2011,05,23,03,48,4.70
2011,05,23,03,49,4.70
2011,05,23,03,50,4.70
2011,05,23,03,51,4.70
2011,05,23,03,52,4.70
2011,05,23,03,53,4.70
2011,05,23,03,54,4.60
2011,05,23,03,55,4.60
2011,05,23,03,56,4.60
2011,05,23,03,57,4.60
2011,05,23,03,58,4.60
2011,05,23,03,59,4.60
2011,05,23,04,00,4.60
2011,05,23,04,01,4.60
2011,05,23,04,02,4.60
2011,05,23,04,03,4.60
2011,05,23,04,04,4.60
2011,05,23,04,05,4.60
2011,05,23,04,06,4.60
2011,05,23,04,07,4.60
2011,05,23,04,08,4.60
2011,05,23,04,09,4.60
2011,05,23,04,10,4.60
2011,05,23,04,11,4.60
2011,05,23,04,12,4.60
2011,05,23,04,13,4.60
2011,05,23,04,14,4.60
2011,05,23,04,15,4.60
2011,05,23,04,16,4.60
2011,05,23,04,17,4.60
2011,05,23,04,18,4.60
2011,05,23,04,19,4.60
2011,05,23,04,20,4.60
2011,05,23,04,21,4.60
2011,05,23,04,22,4.60
2011,05,23,04,23,4.60
2011,05,23,04,24,4.60
2011,05,23,04,25,4.60
2011,05,23,04,26,4.60
2011,05,23,04,27,4.50
2011,05,23,04,28,4.50
2011,05,23,04,29,4.50
2011,05,23,04,30,4.50
2011,05,23,04,31,4.50
2011,05,23,04,32,4.50
2011,05,23,04,33,4.50
2011,05,23,04,34,4.50
2011,05,23,04,35,4.50
2011,05,23,04,36,4.50
2011,05,23,04,37,4.50
2011,05,23,04,38,4.50
2011,05,23,04,39,4.50
2011,05,23,04,40,4.50
2011,05,23,04,41,4.50
2011,05,23,04,42,4.50
2011,05,23,04,43,4.50
2011,05,23,04,44,4.50
2011,05,23,04,45,4.50
2011,05,23,04,46,4.50
2011,05,23,04,47,4.50
2011,05,23,04,48,4.50
2011,05,23,04,49,4.50
2011,05,23,04,50,4.50
2011,05,23,04,51,4.50
2011,05,23,04,52,4.50
2011,05,23,04,53,4.60
2011,05,23,04,54,4.60
2011,05,23,04,55,4.60
2011,05,23,04,56,4.60
2011,05,23,04,57,4.60
2011,05,23,04,58,4.60
2011,05,23,04,59,4.60
2011,05,23,05,00,4.60
2011,05,23,05,01,4.60
2011,05,23,05,02,4.60
2011,05,23,05,03,4.60
2011,05,23,05,04,4.70
2011,05,23,05,05,4.70
2011,05,23,05,06,4.70
2011,05,23,05,07,4.70
2011,05,23,05,08,4.70
2011,05,23,05,09,4.70
2011,05,23,05,10,4.80
2011,05,23,05,11,4.80
2011,05,23,05,12,4.80
2011,05,23,05,13,4.80
2011,05,23,05,14,4.80
2011,05,23,05,15,4.90
2011,05,23,05,16,4.90
2011,05,23,05,17,4.90
2011,05,23,05,18,4.90
2011,05,23,05,19,4.90
2011,05,23,05,20,4.90
2011,05,23,05,21,5.00
2011,05,23,05,22,5.10
2011,05,23,05,23,5.10
2011,05,23,05,24,5.10
2011,05,23,05,25,5.10
2011,05,23,05,26,5.10
2011,05,23,05,27,5.10
2011,05,23,05,28,5.10
2011,05,23,05,29,5.10
2011,05,23,05,30,5.10
2011,05,23,05,31,5.20
2011,05,23,05,32,5.20
2011,05,23,05,33,5.20
2011,05,23,05,34,5.20
2011,05,23,05,35,5.20
2011,05,23,05,36,5.20
2011,05,23,05,37,5.20
2011,05,23,05,38,5.20
2011,05,23,05,39,5.20
2011,05,23,05,40,5.20
2011,05,23,05,41,5.20
2011,05,23,05,42,5.20
2011,05,23,05,43,5.30
2011,05,23,05,44,5.30
2011,05,23,05,45,5.30
2011,05,23,05,46,5.30
2011,05,23,05,47,5.30
2011,05,23,05,48,5.30
2011,05,23,05,49,5.30
2011,05,23,05,50,5.30
2011,05,23,05,51,5.30
2011,05,23,05,52,5.30
2011,05,23,05,53,5.30
2011,05,23,05,54,5.30
2011,05,23,05,55,5.40
2011,05,23,05,56,5.40
2011,05,23,05,57,5.40
2011,05,23,05,58,5.40
2011,05,23,05,59,5.50
2011,05,23,06,00,5.50
2011,05,23,06,01,5.50
2011,05,23,06,02,5.50
2011,05,23,06,03,5.60
2011,05,23,06,04,5.60
2011,05,23,06,05,5.60
2011,05,23,06,06,5.60
2011,05,23,06,07,5.70
2011,05,23,06,08,5.70
2011,05,23,06,09,5.70
2011,05,23,06,10,5.70
2011,05,23,06,11,5.70
2011,05,23,06,12,5.80
2011,05,23,06,13,5.80
2011,05,23,06,14,5.80
2011,05,23,06,15,5.80
2011,05,23,06,16,5.80
2011,05,23,06,17,5.90
2011,05,23,06,18,5.90
2011,05,23,06,19,5.90
2011,05,23,06,20,5.90
2011,05,23,06,21,6.00
2011,05,23,06,22,6.00
2011,05,23,06,23,6.00
2011,05,23,06,24,6.10
2011,05,23,06,25,6.10
2011,05,23,06,26,6.10
2011,05,23,06,27,6.20
2011,05,23,06,28,6.20
2011,05,23,06,29,6.20
2011,05,23,06,30,6.20
2011,05,23,06,31,6.20
2011,05,23,06,32,6.20
2011,05,23,06,33,6.30
2011,05,23,06,34,6.30
2011,05,23,06,35,6.30
2011,05,23,06,36,6.30
2011,05,23,06,37,6.40
2011,05,23,06,38,6.40
2011,05,23,06,39,6.40
2011,05,23,06,40,6.40
2011,05,23,06,41,6.50
2011,05,23,06,42,6.60
2011,05,23,06,43,6.60
2011,05,23,06,44,6.60
2011,05,23,06,45,6.60
2011,05,23,06,46,6.70
2011,05,23,06,47,6.70
2011,05,23,06,48,6.80
2011,05,23,06,49,6.80
2011,05,23,06,50,6.80
2011,05,23,06,51,6.80
2011,05,23,06,52,6.90
2011,05,23,06,53,6.90
2011,05,23,06,54,7.00
2011,05,23,06,55,7.00
2011,05,23,06,56,7.10
2011,05,23,06,57,7.20
2011,05,23,06,58,7.20
2011,05,23,06,59,7.30
2011,05,23,07,00,7.30
2011,05,23,07,01,7.30
2011,05,23,07,02,7.30
2011,05,23,07,03,7.30
2011,05,23,07,04,7.40
2011,05,23,07,05,7.40
2011,05,23,07,06,7.50
2011,05,23,07,07,7.50
2011,05,23,07,08,7.50
2011,05,23,07,09,7.60
2011,05,23,07,10,7.60
2011,05,23,07,11,7.70
2011,05,23,07,12,7.70
2011,05,23,07,13,7.70
2011,05,23,07,14,7.80
2011,05,23,07,15,7.80
2011,05,23,07,16,7.90
2011,05,23,07,17,7.90
2011,05,23,07,18,8.00
2011,05,23,07,19,8.10
2011,05,23,07,20,8.20
2011,05,23,07,21,8.20
2011,05,23,07,22,8.30
2011,05,23,07,23,8.30
2011,05,23,07,24,8.40
2011,05,23,07,25,8.50
2011,05,23,07,26,8.50
2011,05,23,07,27,8.60
2011,05,23,07,28,8.60
2011,05,23,07,29,8.70
2011,05,23,07,30,8.70
2011,05,23,07,31,8.70
2011,05,23,07,32,8.70
2011,05,23,07,33,8.70
2011,05,23,07,34,8.70
2011,05,23,07,35,8.70
2011,05,23,07,36,8.70
2011,05,23,07,37,8.70
2011,05,23,07,38,8.70
2011,05,23,07,39,8.70
2011,05,23,07,40,8.70
2011,05,23,07,41,8.70
2011,05,23,07,42,8.80
2011,05,23,07,43,8.90
2011,05,23,07,44,9.00
2011,05,23,07,45,9.00
2011,05,23,07,46,9.00
2011,05,23,07,47,9.10
2011,05,23,07,48,9.10
2011,05,23,07,49,9.20
2011,05,23,07,50,9.20
2011,05,23,07,51,9.20
2011,05,23,07,52,9.20
2011,05,23,07,53,9.20
2011,05,23,07,54,9.30
2011,05,23,07,55,9.30
2011,05,23,07,56,9.30
2011,05,23,07,57,9.30
2011,05,23,07,58,9.30
2011,05,23,07,59,9.30
2011,05,23,08,00,9.40
2011,05,23,08,01,9.40
2011,05,23,08,02,9.50
2011,05,23,08,03,9.50
2011,05,23,08,04,9.50
2011,05,23,08,05,9.60
2011,05,23,08,06,9.60
2011,05,23,08,07,9.70
2011,05,23,08,08,9.70
2011,05,23,08,09,9.70
2011,05,23,08,10,9.80
2011,05,23,08,11,9.90
2011,05,23,08,12,9.90
2011,05,23,08,13,10.00
2011,05,23,08,14,10.10
2011,05,23,08,15,10.20
2011,05,23,08,16,10.20
2011,05,23,08,17,10.30
2011,05,23,08,18,10.40
2011,05,23,08,19,10.50
2011,05,23,08,20,10.60
2011,05,23,08,21,10.60
2011,05,23,08,22,10.70
2011,05,23,08,23,10.80
2011,05,23,08,24,10.80
2011,05,23,08,25,10.90
2011,05,23,08,26,10.90
2011,05,23,08,27,11.00
2011,05,23,08,28,11.10
2011,05,23,08,29,11.10
2011,05,23,08,30,11.10
2011,05,23,08,31,11.20
2011,05,23,08,32,11.30
2011,05,23,08,33,11.30
2011,05,23,08,34,11.40
2011,05,23,08,35,11.40
2011,05,23,08,36,11.50
2011,05,23,08,37,11.60
2011,05,23,08,38,11.60
2011,05,23,08,39,11.70
2011,05,23,08,40,11.70
2011,05,23,08,41,11.70
2011,05,23,08,42,11.70
2011,05,23,08,43,11.70
2011,05,23,08,44,11.70
2011,05,23,08,45,11.70
2011,05,23,08,46,11.70
2011,05,23,08,47,11.80
2011,05,23,08,48,11.80
2011,05,23,08,49,11.90
2011,05,23,08,50,11.90
2011,05,23,08,51,12.00
2011,05,23,08,52,12.00
2011,05,23,08,53,12.10
2011,05,23,08,54,12.10
2011,05,23,08,55,12.10
2011,05,23,08,56,12.20
2011,05,23,08,57,12.30
2011,05,23,08,58,12.30
2011,05,23,08,59,12.30
2011,05,23,09,00,12.30
2011,05,23,09,01,12.30
2011,05,23,09,02,12.30
2011,05,23,09,03,12.20
2011,05,23,09,04,12.20
2011,05,23,09,05,12.20
2011,05,23,09,06,12.20
2011,05,23,09,07,12.10
2011,05,23,09,08,12.10
2011,05,23,09,09,12.10
2011,05,23,09,10,12.10
2011,05,23,09,11,12.10
2011,05,23,09,12,12.10
2011,05,23,09,13,12.10
2011,05,23,09,14,12.20
2011,05,23,09,15,12.30
2011,05,23,09,16,12.30
2011,05,23,09,17,12.30
2011,05,23,09,18,12.40
2011,05,23,09,19,12.40
2011,05,23,09,20,12.40
2011,05,23,09,21,12.40
2011,05,23,09,22,12.30
2011,05,23,09,23,12.20
2011,05,23,09,24,12.20
2011,05,23,09,25,12.10
2011,05,23,09,26,12.10
2011,05,23,09,27,12.00
2011,05,23,09,28,12.00
2011,05,23,09,29,11.90
2011,05,23,09,30,11.90
2011,05,23,09,31,11.80
2011,05,23,09,32,11.80
2011,05,23,09,33,11.80
2011,05,23,09,34,11.80
2011,05,23,09,35,11.80
2011,05,23,09,36,11.70
2011,05,23,09,37,11.70
2011,05,23,09,38,11.70
2011,05,23,09,39,11.80
2011,05,23,09,40,11.80
2011,05,23,09,41,11.90
2011,05,23,09,42,12.00
2011,05,23,09,43,12.10
2011,05,23,09,44,12.20
2011,05,23,09,45,12.40
2011,05,23,09,46,12.50
2011,05,23,09,47,12.60
2011,05,23,09,48,12.70
2011,05,23,09,49,12.70
2011,05,23,09,50,12.70
2011,05,23,09,51,12.70
2011,05,23,09,52,12.60
2011,05,23,09,53,12.50
2011,05,23,09,54,12.40
2011,05,23,09,55,12.40
2011,05,23,09,56,12.30
2011,05,23,09,57,12.30
2011,05,23,09,58,12.30
2011,05,23,09,59,12.20
2011,05,23,10,00,12.20
2011,05,23,10,01,12.10
2011,05,23,10,02,12.10
2011,05,23,10,03,12.00
2011,05,23,10,04,11.90
2011,05,23,10,05,11.90
2011,05,23,10,06,11.80
2011,05,23,10,07,11.80
2011,05,23,10,08,11.80
2011,05,23,10,09,11.80
2011,05,23,10,10,11.80
2011,05,23,10,11,11.80
2011,05,23,10,12,11.80
2011,05,23,10,13,11.90
2011,05,23,10,14,12.00
2011,05,23,10,15,12.00
2011,05,23,10,16,12.20
2011,05,23,10,17,12.30
2011,05,23,10,18,12.40
2011,05,23,10,19,12.50
2011,05,23,10,20,12.60
2011,05,23,10,21,12.70
2011,05,23,10,22,12.80
2011,05,23,10,23,12.80
2011,05,23,10,24,12.90
2011,05,23,10,25,13.00
2011,05,23,10,26,13.00
2011,05,23,10,27,13.10
2011,05,23,10,28,13.20
2011,05,23,10,29,13.20
2011,05,23,10,30,13.30
2011,05,23,10,31,13.40
2011,05,23,10,32,13.40
2011,05,23,10,33,13.50
2011,05,23,10,34,13.50
2011,05,23,10,35,13.50
2011,05,23,10,36,13.50
2011,05,23,10,37,13.60
2011,05,23,10,38,13.60
2011,05,23,10,39,13.50
2011,05,23,10,40,13.50
2011,05,23,10,41,13.50
2011,05,23,10,42,13.40
2011,05,23,10,43,13.30
2011,05,23,10,44,13.30
2011,05,23,10,45,13.10
2011,05,23,10,46,13.00
2011,05,23,10,47,12.80
2011,05,23,10,48,12.80
2011,05,23,10,49,12.70
2011,05,23,10,50,12.60
2011,05,23,10,51,12.40
2011,05,23,10,52,12.30
2011,05,23,10,53,12.30
2011,05,23,10,54,12.20
2011,05,23,10,55,12.10
2011,05,23,10,56,12.10
2011,05,23,10,57,12.00
2011,05,23,10,58,11.90
2011,05,23,10,59,11.90
2011,05,23,11,00,11.80
2011,05,23,11,01,11.80
2011,05,23,11,02,11.80
2011,05,23,11,03,11.80
2011,05,23,11,04,11.80
2011,05,23,11,05,11.80
2011,05,23,11,06,11.80
2011,05,23,11,07,11.80
2011,05,23,11,08,11.80
2011,05,23,11,09,11.80
2011,05,23,11,10,11.80
2011,05,23,11,11,11.80
2011,05,23,11,12,11.80
2011,05,23,11,13,11.80
2011,05,23,11,14,11.80
2011,05,23,11,15,11.80
2011,05,23,11,16,11.80
2011,05,23,11,17,11.80
2011,05,23,11,18,11.80
2011,05,23,11,19,11.80
2011,05,23,11,20,11.80
2011,05,23,11,21,11.70
2011,05,23,11,22,11.80
2011,05,23,11,23,11.80
2011,05,23,11,24,11.80
2011,05,23,11,25,11.80
2011,05,23,11,26,11.70
2011,05,23,11,27,11.70
2011,05,23,11,28,11.70
2011,05,23,11,29,11.70
2011,05,23,11,30,11.70
2011,05,23,11,31,11.70
2011,05,23,11,32,11.70
2011,05,23,11,33,11.70
2011,05,23,11,34,11.80
2011,05,23,11,35,11.80
2011,05,23,11,36,11.80
2011,05,23,11,37,11.80
2011,05,23,11,38,11.80
2011,05,23,11,39,11.90
2011,05,23,11,40,11.90
2011,05,23,11,41,11.90
2011,05,23,11,42,12.00
2011,05,23,11,43,12.10
2011,05,23,11,44,12.10
2011,05,23,11,45,12.20
2011,05,23,11,46,12.30
2011,05,23,11,47,12.30
2011,05,23,11,48,12.50
2011,05,23,11,49,12.60
2011,05,23,11,50,12.80
2011,05,23,11,51,13.00
2011,05,23,11,52,13.10
2011,05,23,11,53,13.30
2011,05,23,11,54,13.40
2011,05,23,11,55,13.50
2011,05,23,11,56,13.50
2011,05,23,11,57,13.50
2011,05,23,11,58,13.50
2011,05,23,11,59,13.50
2011,05,23,12,00,13.50
2011,05,23,12,01,13.40
2011,05,23,12,02,13.30
2011,05,23,12,03,13.30
2011,05,23,12,04,13.30
2011,05,23,12,05,13.20
2011,05,23,12,06,13.20
2011,05,23,12,07,13.10
2011,05,23,12,08,13.10
2011,05,23,12,09,13.00
2011,05,23,12,10,13.00
2011,05,23,12,11,13.00
2011,05,23,12,12,13.00
2011,05,23,12,13,13.00
2011,05,23,12,14,12.90
2011,05,23,12,15,12.90
2011,05,23,12,16,12.90
2011,05,23,12,17,13.00
2011,05,23,12,18,13.00
2011,05,23,12,19,13.00
2011,05,23,12,20,13.10
2011,05,23,12,21,13.10
2011,05,23,12,22,13.10
2011,05,23,12,23,13.10
2011,05,23,12,24,13.10
2011,05,23,12,25,13.10
2011,05,23,12,26,13.10
2011,05,23,12,27,13.10
2011,05,23,12,28,13.00
2011,05,23,12,29,13.00
2011,05,23,12,30,12.90
2011,05,23,12,31,12.90
2011,05,23,12,32,12.90
2011,05,23,12,33,12.80
2011,05,23,12,34,12.80
2011,05,23,12,35,12.80
2011,05,23,12,36,12.80
2011,05,23,12,37,12.80
2011,05,23,12,38,12.80
2011,05,23,12,39,12.80
2011,05,23,12,40,12.80
2011,05,23,12,41,12.80
2011,05,23,12,42,12.80
2011,05,23,12,43,12.80
2011,05,23,12,44,12.80
2011,05,23,12,45,12.70
2011,05,23,12,46,12.70
2011,05,23,12,47,12.70
2011,05,23,12,48,12.70
2011,05,23,12,49,12.70
2011,05,23,12,50,12.70
2011,05,23,12,51,12.70
2011,05,23,12,52,12.80
2011,05,23,12,53,12.80
2011,05,23,12,54,12.80
2011,05,23,12,55,12.80
2011,05,23,12,56,12.80
2011,05,23,12,57,12.80
2011,05,23,12,58,12.80
2011,05,23,12,59,12.80
2011,05,23,13,00,12.80
2011,05,23,13,01,12.80
2011,05,23,13,02,12.80
2011,05,23,13,03,12.80
2011,05,23,13,04,12.80
2011,05,23,13,05,12.80
2011,05,23,13,06,12.80
2011,05,23,13,07,12.80
2011,05,23,13,08,12.80
2011,05,23,13,09,12.80
2011,05,23,13,10,12.80
2011,05,23,13,11,12.80
2011,05,23,13,12,12.80
2011,05,23,13,13,12.80
2011,05,23,13,14,12.80
2011,05,23,13,15,12.80
2011,05,23,13,16,12.80
2011,05,23,13,17,12.90
2011,05,23,13,18,12.90
2011,05,23,13,19,12.90
2011,05,23,13,20,13.00
2011,05,23,13,21,13.00
2011,05,23,13,22,13.00
2011,05,23,13,23,13.00
2011,05,23,13,24,13.00
2011,05,23,13,25,13.00
2011,05,23,13,26,13.00
2011,05,23,13,27,13.00
2011,05,23,13,28,13.00
2011,05,23,13,29,13.00
2011,05,23,13,30,13.00
2011,05,23,13,31,13.00
2011,05,23,13,32,13.00
2011,05,23,13,33,13.00
2011,05,23,13,34,13.00
2011,05,23,13,35,13.00
2011,05,23,13,36,13.00
2011,05,23,13,37,13.00
2011,05,23,13,38,12.90
2011,05,23,13,39,12.90
2011,05,23,13,40,12.90
2011,05,23,13,41,12.80
2011,05,23,13,42,12.80
2011,05,23,13,43,12.80
2011,05,23,13,44,12.80
2011,05,23,13,45,12.80
2011,05,23,13,46,12.80
2011,05,23,13,47,12.70
2011,05,23,13,48,12.70
2011,05,23,13,49,12.60
2011,05,23,13,50,12.60
2011,05,23,13,51,12.50
2011,05,23,13,52,12.50
2011,05,23,13,53,12.40
2011,05,23,13,54,12.30
2011,05,23,13,55,12.30
2011,05,23,13,56,12.30
2011,05,23,13,57,12.20
2011,05,23,13,58,12.20
2011,05,23,13,59,12.10
2011,05,23,14,00,12.10
2011,05,23,14,01,12.10
2011,05,23,14,02,12.10
2011,05,23,14,03,12.00
2011,05,23,14,04,12.00
2011,05,23,14,05,12.00
2011,05,23,14,06,12.00
2011,05,23,14,07,12.00
2011,05,23,14,08,12.00
2011,05,23,14,09,12.00
2011,05,23,14,10,12.00
2011,05,23,14,11,12.00
2011,05,23,14,12,12.00
2011,05,23,14,13,12.00
2011,05,23,14,14,12.00
2011,05,23,14,15,12.00
2011,05,23,14,16,12.00
2011,05,23,14,17,12.00
2011,05,23,14,18,12.00
2011,05,23,14,19,12.00
2011,05,23,14,20,12.00
2011,05,23,14,21,12.00
2011,05,23,14,22,12.00
2011,05,23,14,23,12.00
2011,05,23,14,24,12.00
2011,05,23,14,25,11.90
2011,05,23,14,26,11.90
2011,05,23,14,27,11.90
2011,05,23,14,28,12.00
2011,05,23,14,29,12.00
2011,05,23,14,30,12.00
2011,05,23,14,31,12.00
2011,05,23,14,32,12.00
2011,05,23,14,33,12.10
2011,05,23,14,34,12.10
2011,05,23,14,35,12.10
2011,05,23,14,36,12.10
2011,05,23,14,37,12.20
2011,05,23,14,38,12.20
2011,05,23,14,39,12.20
2011,05,23,14,40,12.30
2011,05,23,14,41,12.30
2011,05,23,14,42,12.30
2011,05,23,14,43,12.30
2011,05,23,14,44,12.30
2011,05,23,14,45,12.30
2011,05,23,14,46,12.30
2011,05,23,14,47,12.30
2011,05,23,14,48,12.40
2011,05,23,14,49,12.40
2011,05,23,14,50,12.50
2011,05,23,14,51,12.50
2011,05,23,14,52,12.50
2011,05,23,14,53,12.50
2011,05,23,14,54,12.50
2011,05,23,14,55,12.60
2011,05,23,14,56,12.60
2011,05,23,14,57,12.60
2011,05,23,14,58,12.70
2011,05,23,14,59,12.70
2011,05,23,15,00,12.80
2011,05,23,15,01,12.80
2011,05,23,15,02,12.90
2011,05,23,15,03,13.00
2011,05,23,15,04,13.00
2011,05,23,15,05,13.10
2011,05,23,15,06,13.20
2011,05,23,15,07,13.30
2011,05,23,15,08,13.40
2011,05,23,15,09,13.50
2011,05,23,15,10,13.60
2011,05,23,15,11,13.70
2011,05,23,15,12,13.90
2011,05,23,15,13,14.00
2011,05,23,15,14,14.00
2011,05,23,15,15,14.00
2011,05,23,15,16,14.00
2011,05,23,15,17,14.00
2011,05,23,15,18,14.00
2011,05,23,15,19,13.90
2011,05,23,15,20,13.80
2011,05,23,15,21,13.70
2011,05,23,15,22,13.70
2011,05,23,15,23,13.80
2011,05,23,15,24,13.90
2011,05,23,15,25,14.00
2011,05,23,15,26,14.20
2011,05,23,15,27,14.30
2011,05,23,15,28,14.40
2011,05,23,15,29,14.50
2011,05,23,15,30,14.50
2011,05,23,15,31,14.60
2011,05,23,15,32,14.60
2011,05,23,15,33,14.60
2011,05,23,15,34,14.50
2011,05,23,15,35,14.50
2011,05,23,15,36,14.50
2011,05,23,15,37,14.40
2011,05,23,15,38,14.40
2011,05,23,15,39,14.30
2011,05,23,15,40,14.20
2011,05,23,15,41,14.20
2011,05,23,15,42,14.20
2011,05,23,15,43,14.10
2011,05,23,15,44,14.00
2011,05,23,15,45,13.90
2011,05,23,15,46,13.90
2011,05,23,15,47,13.80
2011,05,23,15,48,13.80
2011,05,23,15,49,13.80
2011,05,23,15,50,13.70
2011,05,23,15,51,13.70
2011,05,23,15,52,13.60
2011,05,23,15,53,13.50
2011,05,23,15,54,13.50
2011,05,23,15,55,13.40
2011,05,23,15,56,13.40
2011,05,23,15,57,13.30
2011,05,23,15,58,13.30
2011,05,23,15,59,13.30
2011,05,23,16,00,13.30
2011,05,23,16,01,13.30
2011,05,23,16,02,13.30
2011,05,23,16,03,13.30
2011,05,23,16,04,13.30
2011,05,23,16,05,13.20
2011,05,23,16,06,13.20
2011,05,23,16,07,13.20
2011,05,23,16,08,13.20
2011,05,23,16,09,13.10
2011,05,23,16,10,13.10
2011,05,23,16,11,13.00
2011,05,23,16,12,13.00
2011,05,23,16,13,13.00
2011,05,23,16,14,13.00
2011,05,23,16,15,13.00
2011,05,23,16,16,12.90
2011,05,23,16,17,12.90
2011,05,23,16,18,12.90
2011,05,23,16,19,12.80
2011,05,23,16,20,12.80
2011,05,23,16,21,12.80
2011,05,23,16,22,12.80
2011,05,23,16,23,12.80
2011,05,23,16,24,12.80
2011,05,23,16,25,12.80
2011,05,23,16,26,12.80
2011,05,23,16,27,12.80
2011,05,23,16,28,12.80
2011,05,23,16,29,12.80
2011,05,23,16,30,12.80
2011,05,23,16,31,12.80
2011,05,23,16,32,12.80
2011,05,23,16,33,12.80
2011,05,23,16,34,12.80
2011,05,23,16,35,12.80
2011,05,23,16,36,12.80
2011,05,23,16,37,12.80
2011,05,23,16,38,12.80
2011,05,23,16,39,12.80
2011,05,23,16,40,12.80
2011,05,23,16,41,12.80
2011,05,23,16,42,12.80
2011,05,23,16,43,12.80
2011,05,23,16,44,12.80
2011,05,23,16,45,12.80
2011,05,23,16,46,12.90
2011,05,23,16,47,12.90
2011,05,23,16,48,12.90
2011,05,23,16,49,12.90
2011,05,23,16,50,12.90
2011,05,23,16,51,12.90
2011,05,23,16,52,12.90
2011,05,23,16,53,13.00
2011,05,23,16,54,13.00
2011,05,23,16,55,13.10
2011,05,23,16,56,13.10
2011,05,23,16,57,13.10
2011,05,23,16,58,13.10
2011,05,23,16,59,13.10
2011,05,23,17,00,13.20
2011,05,23,17,01,13.20
2011,05,23,17,02,13.20
2011,05,23,17,03,13.30
2011,05,23,17,04,13.30
2011,05,23,17,05,13.30
2011,05,23,17,06,13.30
2011,05,23,17,07,13.30
2011,05,23,17,08,13.30
2011,05,23,17,09,13.30
2011,05,23,17,10,13.30
2011,05,23,17,11,13.30
2011,05,23,17,12,13.30
2011,05,23,17,13,13.30
2011,05,23,17,14,13.30
2011,05,23,17,15,13.30
2011,05,23,17,16,13.30
2011,05,23,17,17,13.30
2011,05,23,17,18,13.30
2011,05,23,17,19,13.30
2011,05,23,17,20,13.30
2011,05,23,17,21,13.30
2011,05,23,17,22,13.30
2011,05,23,17,23,13.30
2011,05,23,17,24,13.30
2011,05,23,17,25,13.30
2011,05,23,17,26,13.30
2011,05,23,17,27,13.30
2011,05,23,17,28,13.30
2011,05,23,17,29,13.30
2011,05,23,17,30,13.30
2011,05,23,17,31,13.30
2011,05,23,17,32,13.30
2011,05,23,17,33,13.30
2011,05,23,17,34,13.30
2011,05,23,17,35,13.30
2011,05,23,17,36,13.30
2011,05,23,17,37,13.30
2011,05,23,17,38,13.30
2011,05,23,17,39,13.30
2011,05,23,17,40,13.30